Back to catalog

STARLINK-32160

AliveCommunicationsVLEO
NORAD 60261·PAYLOAD·🇺🇸 United States

Launched Jul 27, 2024 from Cape Canaveral Space Force Station

Loading…

Next Passes (next 24 hours)

TLE

FreshSource: CelesTrak SupGP

Epoch: Sep 14, 2026, 13:58 UTC

1 60261C 24131G   26257.58243056 -.00016704  00000+0 -49346-3 0  2576
2 60261  53.1570 253.2230 0001541  73.1087 321.4091 15.34402942    17

Track STARLINK-32160 in real time with AllMySat

Download on the App Store